Regional Weather Roundup
Issued by NWS Portland, ME

Current Version | Previous Version | Text Only | Print | Product List | Glossary Off
Versions: 1 2 3 4 5 6 7 8 9 10 11 12 13 14 15 16 17 18 19 20 21 22 23 24 25 26 27 28 29 30 31 32 33 34 35 36 37 38 39 40 41 42 43 44 45 46 47 48 49 50
986 ASUS41 KGYX 210110 RWRGYX WEATHER ROUNDUP FOR MAINE AND NEW HAMPSHIRE NATIONAL WEATHER SERVICE GRAY ME 900 PM EDT SUN AUG 20 2017 MEZ002-005-006-010-012-015-018-020-021-024-026-027-029-210200- MAINE CITY SKY/WX TMP DP RH WIND PRES REMARKS PORTLAND CLEAR 70 54 56 W3 30.03R SANFORD CLEAR 60 58 92 CALM 30.05R BAR HARBOR CLEAR 68 57 68 W3 29.99R WISCASSET CLEAR 64 58 80 CALM 30.03R ROCKLAND CLEAR 68 57 68 W7 30.01R FRYEBURG CLEAR 61 60 97 W6 30.05R LEWISTONAUBURN CLEAR 68 57 68 CALM 30.04R AUGUSTA CLEAR 70 55 59 CALM 30.03R WATERVILLE CLEAR 68 57 68 CALM 29.99R BANGOR CLEAR 68 56 65 SW6 29.99R GREENVILLE N/A 64 57 78 VRB3 30.00R MILLINOCKET CLEAR 64 58 80 CALM 29.98R HOULTON CLEAR 59 57 93 CALM 29.92R PRESQUE ISLE CLEAR 65 56 72 W6 29.93R FRENCHVILLE CLEAR 63 52 67 W8 29.91R CARIBOU CLEAR 64 55 72 W3 29.91R $$ NHZ002-005-008-009-011-012-014-210200- NEW HAMPSHIRE CITY SKY/WX TMP DP RH WIND PRES REMARKS PORTSMOUTH CLEAR 69 58 68 W5 30.04R ROCHESTER CLEAR 66 55 67 CALM 30.05R NASHUA CLEAR 67 61 81 W3 30.07R MANCHESTER CLEAR 71 57 61 SE3 30.05R CONCORD CLEAR 65 59 81 CALM 30.06R LACONIA CLEAR 64 59 83 CALM 30.07R PLYMOUTH FAIR 61 59 94 CALM 30.06R BERLIN CLEAR 59 56 89 CALM 30.07R WHITEFIELD CLEAR 61 56 83 CALM 30.07R JAFFREY CLEAR 63 62 97 CALM 30.12R KEENE N/A N/A N/A N/A MISG N/A LEBANON CLEAR 65 61 87 SE3 30.07R MT WASHINGTON FOG 46 46 100 NW55 N/A VSB 1/16 $$ VTZ005-007-008-210200- VERMONT CITY SKY/WX TMP DP RH WIND PRES REMARKS ST JOHNSBURY N/A 64 62 93 MISG 30.05R MONTPELIER CLEAR 61 58 90 S3 30.11R BURLINGTON CLEAR 71 61 70 SW3 30.05R $$ MAZ007-012-024-CTZ003-RIZ002-NYZ038-NYZ072-210200- SOUTHERN NEW ENGLAND AND NY CITY SKY/WX TMP DP RH WIND PRES REMARKS BOSTON CLEAR 77 55 46 W7 30.06R WORCESTER CLEAR 70 54 56 W9 30.11R NANTUCKET CLEAR 69 66 90 W5 30.06R PROVIDENCE PTCLDY 74 60 61 W5 30.08R HARTFORD PTCLDY 69 61 75 W6 30.09R ALBANY PTCLDY 71 58 63 CALM 30.09R NEW YORK CITY PTCLDY 80 61 52 NW8 30.10R $$ ANZ081-ANZ082-ANZ150-NHZ014-MEZ023>029-210200- COASTAL MARINE OBSERVATIONS STATION/POSITION TIME TEMP WIND PRES WAVE AIR SEA DIR/SP/G HT/PER (UTC) (F) (DEG/KT/KT) (MB) (FT/S) MOUNT DESERT ROC 0100 65 1015.3R MATINICUS ROCK 0000 69 300/ 17/ 18 1014.5R ISLE OF SHOALS 0000 75 300/ 11/ 11 1016.2R JEFFREYS LEDGE 0006 65 N/A 2/ 6 CASHES LEDGE BUO 0050 69 69 1016.1R 3/ 6 GEORGES BANK BUO 0050 65 65 1016.2R 4/ 6 $$ .............KEY.............. WCI - WIND CHILL TC - TEMPERATURE IN CELSIUS VSB - VISIBILITY IN MILES HX - HEAT INDEX FAIR- INDICATES FEW OR NO CLOUDS BELOW 12,000 FT, WITH NO SIGNIFICANT WEATHER AND/OR OBSTRUCTIONS TO VISIBILITY.

USA.gov is the U.S. government's official web portal to all federal, state and local government web resources and services.